Flag for Belgium Weather past 2 weeks in Brussels, Belgium

Now
61 °F

Clear.


Feels Like: 61 °F
Forecast: 49 / 60 °F
Wind: 12 mph from South

Location: Brussels National Airport

Current Time: May 5, 2015 at 3:18:04 AM

Latest Report: May 5, 2015 at 2:50 AM


Visibility: 10 mi

Pressure: 29.36 "Hg

Humidity: 94%

Dew point: 59 °F

Location of BrusselsLocation

Historic Weather in Brussels — Graph

°F

Brussels temperature yesterday

Maximum temperature yesterday: 68 °F (at 5:20 PM)
Minimum temperature yesterday: 52 °F (at 5:50 AM)
Average temperature yesterday: 59 °F

Past Weeks' High & Low Weather Summary

 TemperatureHumidityPressure
High70 °F (Apr 24, 2:20 PM)100% (Apr 22, 3:20 AM)30.48 "Hg (Apr 22, 3:20 AM)
Low34 °F (Apr 28, 5:20 AM)12% (May 3, 10:50 AM)29.39 "Hg (May 5, 1:50 AM)
Average51 °F72%29.95 "Hg
* Reported Apr 20 1:20 AM — May 5 1:50 AM, Brussels, Weather by CustomWeather, © 2015

Note: Actual official high and low records may vary slightly from our data, if they occured in-between our weather recording intervals... More about our weather records

Advertising

Brussels weather history for previous 24 hours

 ConditionsComfort  
Time TempWeatherWind HumidityBarometerVisibility
1:50 AM
Tue, May 5
59 °FLight rain. Passing clouds.10 mph94%29.39 "HgN/A
1:20 AM59 °FRain showers. Passing clouds.13 mph94%29.42 "Hg3 mi
12:50 AM59 °FRain showers. Passing clouds.13 mph94%29.42 "Hg3 mi
12:20 AM59 °FLight rain. Passing clouds.13 mph94%29.45 "HgN/A
11:50 PM
Mon, May 4
59 °FSprinkles. Passing clouds.7 mph94%29.47 "Hg6 mi
11:20 PM57 °FSprinkles. Passing clouds.8 mph94%29.50 "Hg6 mi
10:50 PM59 °FRain. Passing clouds.2 mph88%29.53 "Hg2 mi
10:20 PM59 °FLight rain. Passing clouds.6 mph94%29.53 "HgN/A
9:50 PM59 °FLight rain. Partly sunny.3 mph94%29.56 "HgN/A
9:20 PM59 °FLight rain. Partly sunny.3 mph88%29.59 "HgN/A
8:50 PM61 °FLight rain. Partly sunny.5 mph83%29.62 "HgN/A
8:20 PM64 °FLight rain. Clear.6 mph60%29.62 "HgN/A
7:50 PM64 °FSunny.6 mph60%29.62 "Hg10 mi
7:20 PM66 °FSunny.6 mph56%29.65 "Hg10 mi
6:50 PM66 °FPassing clouds.9 mph52%29.65 "HgN/A
6:20 PM66 °FScattered clouds.10 mph56%29.68 "HgN/A
5:50 PM68 °FScattered clouds.7 mph56%29.68 "HgN/A
5:20 PM68 °FScattered clouds.7 mph53%29.71 "HgN/A
4:50 PM66 °FScattered clouds.8 mph56%29.71 "HgN/A
4:20 PM66 °FScattered clouds.8 mph56%29.74 "HgN/A
3:50 PM66 °FScattered clouds.9 mph56%29.74 "HgN/A
3:20 PM64 °FScattered clouds.8 mph60%29.74 "HgN/A
2:50 PM64 °FScattered clouds.8 mph64%29.77 "HgN/A
2:20 PM63 °FScattered clouds.10 mph64%29.77 "HgN/A
1:50 PM64 °FScattered clouds.7 mph60%29.77 "HgN/A
1:20 PM63 °FBroken clouds.9 mph64%29.80 "HgN/A
12:50 PM61 °FBroken clouds.8 mph68%29.80 "HgN/A
12:20 PM63 °FBroken clouds.9 mph64%29.77 "HgN/A
11:50 AM61 °FBroken clouds.9 mph72%29.80 "HgN/A
11:20 AM59 °FBroken clouds.7 mph77%29.80 "HgN/A
10:50 AM59 °FBroken clouds.6 mph77%29.77 "HgN/A
10:20 AM59 °FBroken clouds.9 mph77%29.80 "HgN/A
9:50 AM59 °FScattered clouds.8 mph77%29.77 "HgN/A
9:20 AM57 °FScattered clouds.9 mph82%29.77 "HgN/A
8:50 AM55 °FScattered clouds.8 mph88%29.77 "HgN/A
8:20 AM55 °FPartly sunny.12 mph82%29.77 "HgN/A
7:50 AM55 °FPassing clouds.9 mph88%29.74 "HgN/A
7:20 AM54 °FSunny.10 mph88%29.74 "Hg10 mi
6:50 AM52 °FClear.8 mph94%29.74 "Hg10 mi
6:20 AM52 °FClear.7 mph94%29.71 "Hg10 mi
5:50 AM52 °FClear.8 mph94%29.71 "Hg10 mi
5:20 AM54 °FClear.9 mph88%29.71 "Hg10 mi
4:50 AM54 °FClear.9 mph94%29.71 "Hg10 mi
4:20 AM54 °FPassing clouds.9 mph94%29.71 "HgN/A
3:50 AM54 °FPassing clouds.6 mph94%29.71 "HgN/A
3:20 AM54 °FPassing clouds.6 mph94%29.68 "HgN/A
Weather by CustomWeather, © 2015

See weather overviewHow to use our weather pages